This is the latest recevied weather packets stored in our database for station/object KB1JL-13. If no packets are shown the sender has not sent any weather packets the latest 10 day(s).
| Time | Temp. | Humidity | Pressure | Rain* | Wind** | Luminosity | Snow |
|---|---|---|---|---|---|---|---|
| 1777928097 | 18.89° C | 50% | 1020.5 hPa | 0 mm | - | 367 W/m² | - |
| 1777927795 | 19.44° C | 50% | 1020.9 hPa | 0 mm | - | 361 W/m² | - |
| 1777927493 | 18.89° C | 51% | 1020.9 hPa | 0 mm | - | 390 W/m² | - |
| 1777927192 | 18.89° C | 51% | 1020.9 hPa | 0 mm | - | 275 W/m² | - |
| 1777926889 | 19.44° C | 51% | 1020.9 hPa | 0 mm | - | 350 W/m² | - |
| 1777926585 | 18.89° C | 50% | 1020.9 hPa | 0 mm | - | 397 W/m² | - |
| 1777926281 | 19.44° C | 48% | 1020.9 hPa | 0 mm | - | 448 W/m² | - |
| 1777925978 | 18.89° C | 50% | 1020.9 hPa | 0 mm | - | 448 W/m² | - |
| 1777925676 | 19.44° C | 51% | 1020.9 hPa | 0 mm | - | 454 W/m² | - |
| 1777925373 | 18.89° C | 48% | 1020.9 hPa | 0 mm | - | 456 W/m² | - |
| 1777925070 | 19.44° C | 51% | 1020.9 hPa | 0 mm | - | 481 W/m² | - |
| 1777924766 | 19.44° C | 48% | 1020.9 hPa | 0 mm | - | 489 W/m² | - |
| 1777924462 | 19.44° C | 48% | 1020.9 hPa | 0 mm | - | 503 W/m² | - |
| 1777924159 | 19.44° C | 49% | 1020.5 hPa | 0 mm | - | 481 W/m² | - |
| 1777923855 | 19.44° C | 47% | 1020.9 hPa | 0 mm | - | 496 W/m² | - |
| 1777923551 | 19.44° C | 46% | 1020.9 hPa | 0 mm | - | 535 W/m² | - |
| 1777923249 | 19.44° C | 48% | 1020.9 hPa | 0 mm | - | 547 W/m² | - |
| 1777922947 | 20° C | 47% | 1020.9 hPa | 0 mm | - | 454 W/m² | - |
| 1777922644 | 20° C | 49% | 1020.9 hPa | 0 mm | - | 558 W/m² | - |
| 1777922343 | 20° C | 45% | 1020.9 hPa | 0 mm | - | 576 W/m² | - |
| 1777922040 | 19.44° C | 46% | 1020.9 hPa | 0 mm | - | 579 W/m² | - |
| 1777921735 | 19.44° C | 47% | 1020.9 hPa | 0 mm | - | 573 W/m² | - |
| 1777921431 | 19.44° C | 47% | 1020.9 hPa | 0 mm | - | 551 W/m² | - |
| 1777921128 | 20° C | 45% | 1021.2 hPa | 0 mm | - | 567 W/m² | - |
| 1777920825 | 20° C | 44% | 1021.2 hPa | 0 mm | - | 563 W/m² | - |
* Rain latest hour (hover to see other rain measurements)
** Current wind speed in m/s (hover to see current wind gust speed)